Weather History for Myrtle Beach, SC

Change the Weather History Date:

Friday, November 16, 2012

  Actual Average Record
Temperature  
Mean Temperature 52 °F -  
Max Temperature 59 °F 63 °F 84 °F (1993)
Min Temperature 46 °F 43 °F 30 °F (1996)
Degree Days  
Heating Degree Days 12    
Growing Degree Days 2 (Base 50)    
Moisture  
Dew Point 46 °F    
Average Humidity 92    
Maximum Humidity 100    
Minimum Humidity 63    
Precipitation  
Precipitation 0.00 in - - ()
Sea Level Pressure  
Sea Level Pressure 30.24 in    
Wind  
Wind Speed 12 mph (North)    
Max Wind Speed 17 mph    
Max Gust Speed 23 mph    
Visibility 7 miles    
Events      
Averages and records for this station are not official NWS values.
T = Trace of Precipitation, MM = Missing Value Source: NWS Daily Summary

Daily Weather History Graph

Daily Weather History Graph

Search for Another Location

Airport:

Trip Planner

Search our weather history database for the weather conditions in past years. The results will help you decide how hot, cold, wet, or windy it might be!

Date:

Astronomy

Nov. 16, 2012 Rise Set
Actual Time 6:48 AM EST 5:11 PM EST
Civil Twilight 6:22 AM EST 5:38 PM EST
Nautical Twilight 5:52 AM EST 6:08 PM EST
Astronomical Twilight 5:22 AM EST 6:38 PM EST
Moon 9:39 AM EST (11/16) 8:11 PM EST (11/16)
Length of Visible Light 11h 16m
Length of Day
10h 22m
Waxing Crescent, 11% of the Moon is Illuminated
Nov 16
Waxing Crescent
Nov 20
First Quarter
Nov 28
Full
Dec 6
Last Quarter
Dec 13
New

Hourly Weather History & Observations

Time (EST) Temp. Windchill Dew Point Humidity Pressure Visibility Wind Dir Wind Speed Gust Speed Precip Events Conditions
12:15 AM 46.4 °F 41.1 °F 44.6 °F 93% 30.21 in 3.0 mi NNW 11.5 mph - N/A   Overcast
12:35 AM 46.4 °F 41.1 °F 44.6 °F 93% 30.21 in 3.0 mi NNW 11.5 mph - N/A   Overcast
12:55 AM 46.4 °F 41.1 °F 46.4 °F 100% 30.20 in 4.0 mi North 11.5 mph - N/A   Overcast
1:15 AM 46.4 °F 40.7 °F 46.4 °F 100% 30.20 in 5.0 mi North 12.7 mph - N/A   Overcast
1:35 AM 46.4 °F 40.7 °F 44.6 °F 93% 30.20 in 5.0 mi North 12.7 mph - N/A   Overcast
1:55 AM 46.4 °F 41.5 °F 46.4 °F 100% 30.21 in 4.0 mi NNW 10.4 mph - N/A   Overcast
2:15 AM 46.4 °F 41.1 °F 44.6 °F 93% 30.21 in 4.0 mi NNW 11.5 mph - N/A   Overcast
2:35 AM 46.4 °F 41.1 °F 46.4 °F 100% 30.21 in 3.0 mi NNW 11.5 mph - N/A   Overcast
2:55 AM 46.4 °F 41.1 °F 46.4 °F 100% 30.21 in 4.0 mi North 11.5 mph - N/A   Overcast
3:15 AM 46.4 °F 40.7 °F 46.4 °F 100% 30.21 in 4.0 mi North 12.7 mph - N/A   Overcast
3:35 AM 46.4 °F 40.7 °F 44.6 °F 93% 30.21 in 4.0 mi North 12.7 mph - N/A   Overcast
3:55 AM 46.4 °F 39.8 °F 46.4 °F 100% 30.21 in 5.0 mi North 16.1 mph 19.6 mph N/A   Overcast
4:15 AM 46.4 °F 40.1 °F 46.4 °F 100% 30.21 in 5.0 mi North 15.0 mph - N/A   Overcast
4:35 AM 46.4 °F 39.8 °F 46.4 °F 100% 30.21 in 6.0 mi North 16.1 mph - N/A   Overcast
4:55 AM 46.4 °F 40.4 °F 44.6 °F 93% 30.21 in 7.0 mi North 13.8 mph - N/A   Overcast
5:15 AM 46.4 °F 40.7 °F 46.4 °F 100% 30.21 in 7.0 mi North 12.7 mph - N/A   Overcast
5:35 AM 46.4 °F 40.7 °F 44.6 °F 93% 30.21 in 7.0 mi NNE 12.7 mph - N/A   Overcast
5:50 AM 46.4 °F 39.5 °F 46.4 °F 100% 30.22 in 7.0 mi NNE 17.3 mph - N/A   Overcast
5:55 AM 46.4 °F 41.5 °F 46.4 °F 100% 30.21 in 7.0 mi North 10.4 mph - N/A   Overcast
6:16 AM 46.4 °F 40.1 °F 46.4 °F 100% 30.23 in 5.0 mi NNE 15.0 mph - N/A   Overcast
6:50 AM 57.2 °F - 57.2 °F 100% 30.16 in 4.0 mi North 6.9 mph - N/A   Overcast
7:45 AM 48.2 °F - 46.4 °F 93% 30.25 in 5.0 mi North 13.8 mph - N/A   Overcast
8:45 AM 48.2 °F - 46.4 °F 93% 30.27 in 5.0 mi NNE 11.5 mph - N/A   Overcast
9:45 AM 48.2 °F - 48.2 °F 100% 30.28 in 7.0 mi NNE 17.3 mph 23.0 mph N/A   Overcast
10:26 AM 53.6 °F - 48.2 °F 82% 30.28 in 10.0 mi NE 12.7 mph - N/A   Scattered Clouds
10:50 AM 53.6 °F - 46.4 °F 77% 30.28 in 10.0 mi NNE 12.7 mph 18.4 mph N/A   Scattered Clouds
11:50 AM 57.2 °F - 48.2 °F 72% 30.26 in 10.0 mi NNE 17.3 mph - N/A   Scattered Clouds
2:50 PM 59.0 °F - 46.4 °F 63% 30.23 in 10.0 mi NNE 11.5 mph 17.3 mph N/A   Mostly Cloudy
3:50 PM 57.2 °F - 46.4 °F 67% 30.24 in 10.0 mi North 11.5 mph - N/A   Scattered Clouds
5:47 PM 51.8 °F - 42.8 °F 71% 30.26 in 10.0 mi North 9.2 mph - N/A   Scattered Clouds
7:45 PM 48.2 °F - 44.6 °F 87% 30.30 in 10.0 mi NNE 6.9 mph - N/A   Clear
8:46 PM 46.4 °F 42.4 °F 44.6 °F 93% 30.31 in 10.0 mi ENE 8.1 mph - N/A   Clear
9:45 PM 46.4 °F 41.5 °F 44.6 °F 93% 30.32 in 10.0 mi NE 10.4 mph - N/A   Clear
11:15 PM 46.4 °F 41.9 °F 42.8 °F 87% 30.32 in 10.0 mi North 9.2 mph - N/A   Clear
11:35 PM 46.4 °F 42.9 °F 42.8 °F 87% 30.33 in 10.0 mi NNE 6.9 mph - N/A   Clear
11:55 PM 46.4 °F 41.5 °F 42.8 °F 87% 30.33 in 10.0 mi NNE 10.4 mph - N/A   Clear